TimeCDT,TemperatureF,Dew PointF,Humidity,Sea Level PressureIn,VisibilityMPH,Wind Direction,Wind SpeedMPH,Gust SpeedMPH,PrecipitationIn,Events,Conditions,WindDirDegrees,DateUTC
12:55 AM,73.2,49.1,42,29.93,10.0,ESE,9.2,-,N/A,,Clear,120,2012-09-12 05:55:00
1:55 AM,71.4,49.3,45,29.92,10.0,SE,8.1,-,N/A,,Clear,130,2012-09-12 06:55:00
2:55 AM,69.1,49.8,50,29.91,10.0,SE,9.2,-,N/A,,Clear,130,2012-09-12 07:55:00
3:55 AM,68.4,50.4,53,29.90,10.0,ESE,8.1,-,N/A,,Clear,120,2012-09-12 08:55:00
4:55 AM,67.1,50.7,56,29.91,10.0,ESE,5.8,-,N/A,,Clear,120,2012-09-12 09:55:00
5:55 AM,63.9,51.3,64,29.92,10.0,ESE,8.1,-,N/A,,Clear,120,2012-09-12 10:55:00
6:55 AM,67.6,51.3,56,29.92,10.0,SE,9.2,-,N/A,,Clear,130,2012-09-12 11:55:00
7:55 AM,67.3,52.3,59,29.95,10.0,SE,9.2,-,N/A,,Clear,140,2012-09-12 12:55:00
8:55 AM,71.4,53.6,53,29.96,10.0,SSE,12.7,-,N/A,,Clear,160,2012-09-12 13:55:00
9:55 AM,77.5,54.9,45,29.97,10.0,South,16.1,-,N/A,,Clear,170,2012-09-12 14:55:00
10:55 AM,82.8,56.8,41,29.97,10.0,South,18.4,-,N/A,,Clear,170,2012-09-12 15:55:00
11:55 AM,86.9,59.0,39,29.96,10.0,South,19.6,27.6,N/A,,Clear,170,2012-09-12 16:55:00
12:55 PM,90.7,58.1,33,29.94,10.0,South,18.4,26.5,N/A,,Clear,180,2012-09-12 17:55:00
1:55 PM,93.7,58.1,30,29.93,10.0,SSE,19.6,26.5,N/A,,Clear,160,2012-09-12 18:55:00
2:55 PM,94.6,55.8,27,29.90,10.0,SSE,20.7,25.3,N/A,,Clear,160,2012-09-12 19:55:00
3:55 PM,95.9,54.3,25,29.88,10.0,SSE,23.0,28.8,N/A,,Clear,160,2012-09-12 20:55:00
4:55 PM,95.2,53.8,25,29.87,10.0,SSE,17.3,26.5,N/A,,Clear,160,2012-09-12 21:55:00
5:55 PM,94.8,55.6,27,29.87,10.0,SSE,18.4,27.6,N/A,,Clear,160,2012-09-12 22:55:00
6:55 PM,91.0,57.0,32,29.88,10.0,SE,13.8,-,N/A,,Overcast,140,2012-09-12 23:55:00
7:55 PM,88.3,57.2,35,29.90,10.0,ESE,11.5,-,N/A,,Overcast,120,2012-09-13 00:55:00
8:55 PM,85.8,58.6,40,29.91,10.0,ESE,13.8,-,N/A,,Mostly Cloudy,120,2012-09-13 01:55:00
9:55 PM,83.8,57.6,41,29.93,10.0,ESE,16.1,-,N/A,,Overcast,120,2012-09-13 02:55:00
10:55 PM,81.3,58.1,45,29.95,10.0,ESE,12.7,-,N/A,,Overcast,120,2012-09-13 03:55:00
11:55 PM,80.6,59.5,49,29.96,10.0,SE,15.0,-,N/A,,Overcast,130,2012-09-13 04:55:00